Wind_Speed
25 25 25 26 28 29 30 31 32 33 33 32 31 30 29 29 28 27 28 30 30 30 31 30 28 26 24 22 21 20 20 21 20 20 19 18 18 18 18 18 18 18 17 16 15 13 12 12 11 11 10 9 9 9 10 11 11 12 12 13 14 15 16 16 15 15 14 12 12 10 9 8 7 6 6 7 8 8 7 6 6 7 7 7 6
26 26 26 28 30 30 30 31 31 33 34 33 32 31 31 30 28 28 28 29 30 30 31 29 27 25 24 22 21 21 21 21 21 20 19 18 18 17 18 17 17 17 16 15 14 13 12 12 11 10 9 8 8 9 11 11 12 12 13 13 14 15 16 17 16 15 14 13 12 11 9 8 7 7 7 7 8 9 8 7 7 7 7 7 7
28 28 29 30 31 30 28 28 30 33 34 33 32 32 31 30 28 28 28 29 30 31 30 29 27 25 23 22 22 21 21 21 21 20 19 18 17 17 17 17 16 16 16 15 14 12 12 12 11 10 9 8 8 9 11 11 12 12 13 14 14 15 16 17 16 16 15 14 13 12 10 9 8 7 7 8 9 10 9 7 7 7 7 7 7
30 31 32 32 31 30 29 29 31 33 33 32 30 30 29 29 28 27 28 29 30 30 29 28 26 24 23 23 22 21 20 20 20 20 19 18 18 17 17 16 16 15 15 15 14 12 12 12 11 10 9 8 8 9 11 11 11 12 13 13 14 15 16 17 17 16 16 15 14 13 11 10 9 8 8 8 9 10 9 8 7 7 7 7 7
33 34 34 33 33 32 32 32 32 33 32 29 28 28 28 29 28 28 29 30 30 30 29 27 26 24 23 22 21 20 20 20 19 19 19 18 18 18 17 15 15 15 15 15 14 12 12 12 11 10 10 9 8 9 11 11 11 12 13 13 14 15 16 17 17 17 17 16 15 14 12 11 10 8 8 9 9 10 10 9 8 7 8 8 7
37 37 35 34 34 34 32 32 31 30 28 27 26 27 29 29 29 29 29 29 30 29 29 27 26 25 24 23 21 20 19 19 19 18 18 18 18 18 17 16 14 14 15 14 14 13 13 13 12 11 11 10 9 9 10 11 11 12 13 13 14 15 16 17 17 18 18 18 17 15 14 12 11 9 8 8 9 10 10 10 9 8 8 8 7
40 40 38 38 37 35 33 31 28 26 25 27 28 29 30 30 30 29 29 29 30 30 29 27 26 25 24 23 21 20 20 19 19 18 18 18 19 19 18 16 15 14 15 14 14 14 13 13 13 12 12 11 10 10 10 11 11 12 13 13 14 15 16 17 17 18 18 18 18 16 15 13 12 10 9 9 9 10 10 10 10 9 8 8 7
41 42 43 44 41 37 34 32 30 28 28 30 31 31 30 29 29 29 29 30 30 30 29 28 26 24 24 23 22 21 20 19 19 19 19 19 19 19 19 17 15 15 15 14 14 14 15 15 14 13 12 12 11 10 11 11 11 12 12 13 13 15 16 17 17 17 18 19 19 17 16 14 13 11 10 9 10 10 10 10 10 9 9 8 8
43 44 46 46 41 37 35 35 34 33 32 31 31 31 29 29 30 30 30 30 30 30 29 27 26 25 24 24 22 21 20 20 20 20 21 21 20 20 19 17 16 15 14 13 13 14 16 16 16 15 14 13 12 11 11 11 11 12 12 13 14 15 17 16 16 17 18 19 19 18 17 15 14 13 11 10 10 10 10 10 10 10 10 9 9
44 44 45 43 38 36 36 35 34 34 33 32 32 31 30 30 30 30 30 30 29 29 28 26 25 25 24 24 23 22 21 21 21 21 22 22 22 20 19 18 16 15 14 13 13 14 16 17 16 16 16 15 13 12 12 12 12 12 12 13 14 16 17 16 16 16 17 19 19 19 17 16 15 14 12 11 10 10 9 10 10 10 10 10 9
42 42 42 40 36 34 34 34 34 34 33 33 32 31 32 31 30 29 29 28 28 27 27 26 25 25 25 24 23 23 22 22 22 22 23 23 23 21 19 18 17 15 14 13 12 14 16 17 17 17 17 17 15 14 13 13 13 13 13 13 15 17 17 17 16 16 18 18 19 19 18 17 16 14 13 12 11 9 9 9 10 10 10 10 10
40 42 42 40 37 35 34 34 34 34 33 33 32 32 31 30 29 28 28 27 27 26 26 26 26 26 25 24 24 24 24 24 24 24 24 24 23 22 19 18 17 16 14 12 13 14 16 16 17 17 18 18 17 16 15 14 14 13 13 14 16 17 18 18 17 17 17 18 18 19 19 18 17 15 14 13 11 10 9 9 9 10 11 11 11
39 39 40 40 37 35 34 32 32 32 32 33 32 32 30 28 27 27 27 26 26 26 26 26 26 26 25 25 25 25 26 26 26 25 24 24 23 22 20 18 17 16 14 13 13 15 16 16 17 18 18 18 18 17 16 16 15 14 14 16 17 17 18 18 18 17 18 19 18 18 19 19 18 17 15 13 12 10 9 9 8 9 10 11 11
36 34 34 35 33 32 31 30 30 31 32 32 32 29 27 27 26 26 26 26 26 26 27 27 26 26 26 26 26 26 26 26 26 26 25 24 23 22 20 18 16 16 15 14 14 16 17 17 18 19 19 19 19 18 18 17 16 15 16 17 17 18 18 18 18 18 19 20 19 19 19 19 19 18 17 14 12 11 10 9 8 8 10 11 11
33 31 31 30 29 30 29 28 30 31 32 30 27 25 25 26 25 25 25 25 26 27 28 27 27 27 28 28 27 27 27 26 27 26 25 24 23 22 20 18 16 16 15 15 15 16 17 19 20 20 20 19 19 18 18 18 17 16 16 17 18 19 19 19 18 18 19 21 20 19 19 20 20 20 18 16 13 11 10 9 9 9 9 11 12
31 29 30 28 25 27 27 27 30 30 28 24 22 23 24 24 23 24 24 25 27 28 28 28 29 30 31 31 31 29 28 28 27 26 25 23 23 22 20 19 17 15 15 16 16 17 17 19 20 21 21 20 19 19 19 18 18 17 17 18 19 20 20 19 18 19 20 21 21 20 19 20 20 20 20 18 15 12 11 10 9 9 9 10 12
28 28 29 28 24 23 24 25 28 26 23 21 21 22 22 22 22 24 25 27 28 29 30 30 32 33 33 34 32 30 30 30 28 27 25 24 23 22 21 19 17 16 16 17 18 18 18 19 21 21 21 21 21 21 21 20 19 18 17 18 20 21 20 20 19 19 20 21 22 22 20 20 20 21 21 19 16 13 12 11 10 10 9 10 11
25 25 25 25 22 21 22 24 24 22 20 21 21 21 21 22 24 26 27 29 30 30 30 31 31 31 31 30 29 30 30 29 28 27 26 25 24 23 22 20 18 16 15 17 18 18 19 20 22 22 23 22 22 22 22 22 21 19 18 19 21 22 21 21 20 19 20 21 22 23 22 21 20 21 21 20 18 15 13 12 11 10 10 11 11
22 21 21 21 20 21 22 22 21 20 20 21 21 21 23 24 26 28 30 30 30 30 30 30 29 27 26 26 28 28 27 26 26 27 26 25 24 23 21 19 18 16 14 16 18 19 21 21 22 23 23 23 22 22 22 23 23 21 20 20 21 22 22 22 22 21 20 21 22 23 23 22 21 21 22 21 19 17 14 13 12 11 11 11 12
19 19 20 20 19 20 21 21 20 20 20 21 22 24 26 27 28 30 31 29 28 29 28 28 27 27 27 28 28 26 24 23 23 23 23 23 23 22 21 20 18 16 14 15 18 20 21 22 23 23 22 22 21 21 21 22 22 22 21 21 21 22 23 23 23 22 21 21 22 23 24 24 23 22 22 22 21 19 16 15 14 13 12 12 12
18 18 19 19 18 20 21 21 21 22 23 25 27 28 28 28 29 30 31 29 29 29 28 27 28 29 29 28 27 26 25 25 24 23 22 22 21 20 20 19 19 18 16 16 18 20 21 23 23 23 22 22 22 22 21 21 21 22 22 21 21 23 24 24 24 23 22 22 22 23 24 26 26 24 23 23 23 21 19 17 15 14 14 13 13
18 20 20 19 19 20 21 22 24 25 27 29 30 30 29 29 29 28 29 29 28 28 28 28 28 28 28 26 25 25 25 27 27 25 25 24 23 21 20 19 18 17 17 17 18 20 21 23 23 23 22 22 22 22 22 21 21 21 21 20 21 23 24 24 24 24 23 23 23 24 25 26 27 26 25 24 24 23 21 19 17 16 15 15 14
22 24 22 20 20 21 23 25 27 28 30 32 33 32 30 29 28 27 27 27 26 26 27 27 27 26 26 24 25 26 25 25 27 26 25 24 24 22 19 18 17 16 17 18 19 20 21 22 22 22 22 22 22 22 22 21 21 20 20 20 21 22 23 23 24 25 24 24 24 24 25 26 28 28 27 26 25 25 23 22 20 18 17 16 15
23 24 20 20 23 24 27 29 30 30 30 31 33 33 30 28 28 29 28 27 26 26 26 26 26 25 24 23 24 26 27 28 28 26 25 23 22 21 18 17 17 16 16 17 19 20 22 22 21 21 21 21 22 22 22 22 21 20 20 20 21 21 22 22 24 25 26 25 24 24 25 26 28 29 28 27 26 26 25 23 22 20 19 17 17
18 21 16 19 26 28 30 31 30 29 30 29 26 23 24 26 27 27 26 26 26 27 27 26 25 24 23 23 24 25 26 28 27 26 25 23 21 20 19 18 16 15 16 18 19 21 23 23 21 21 21 21 22 22 23 22 21 20 20 20 20 21 22 22 23 25 26 26 25 25 25 26 28 29 29 28 28 27 26 25 24 22 21 20 18
20 21 20 20 27 30 30 29 28 29 31 31 26 21 22 26 27 25 25 25 25 26 27 26 24 23 22 23 24 24 24 25 25 24 23 22 20 18 17 17 16 15 16 17 18 20 23 24 23 21 21 21 22 23 24 23 22 21 20 20 20 21 22 22 22 24 26 27 27 26 26 26 27 28 29 29 29 28 28 27 26 25 23 22 21
23 27 28 27 29 29 28 26 28 29 29 30 29 25 23 24 25 25 24 22 21 22 23 23 22 22 22 23 24 23 22 22 22 22 20 19 18 15 15 15 15 16 16 17 17 19 22 24 25 24 22 22 23 23 24 23 22 21 20 20 21 22 22 23 22 23 25 27 27 27 27 27 28 28 29 29 30 30 29 29 28 27 26 25 23
24 27 31 31 28 27 29 29 29 29 26 26 25 21 18 18 19 20 21 20 19 20 20 19 19 20 21 22 22 22 20 20 20 19 19 19 17 15 15 14 13 13 14 14 14 16 19 23 25 25 24 23 24 24 23 23 22 22 21 21 22 23 23 23 23 24 25 27 28 28 28 28 29 29 29 29 30 31 30 30 30 29 29 28 26
26 28 28 28 26 27 29 29 26 24 23 21 20 17 16 16 16 18 20 21 21 21 20 19 18 17 19 20 20 20 19 19 18 18 18 17 16 15 14 14 13 13 13 13 14 15 17 20 22 24 23 23 23 24 23 23 23 22 21 21 22 23 24 24 24 25 26 27 28 29 29 30 30 30 30 30 30 30 31 31 31 31 31 30 29
29 31 27 24 22 21 21 20 18 16 16 16 18 18 18 17 16 17 20 21 21 21 20 19 18 16 17 19 19 18 17 17 17 18 17 16 15 13 12 14 15 14 14 15 16 16 16 17 19 21 22 22 23 23 23 23 23 23 22 23 23 23 25 25 25 26 28 29 30 29 29 30 31 31 31 31 30 30 30 31 32 33 33 32 31
29 27 25 22 17 15 14 13 13 12 12 15 17 18 18 18 17 17 18 20 20 21 20 18 17 17 17 16 16 16 15 16 16 17 15 15 14 10 9 12 13 12 10 8 9 10 11 13 16 17 18 20 21 23 23 24 25 24 25 25 25 24 25 26 26 27 27 29 31 31 29 30 31 32 32 32 32 31 30 31 32 33 34 34 33
24 20 20 21 17 13 11 10 11 12 12 14 16 16 17 17 17 17 18 19 20 20 20 18 17 16 15 15 15 15 13 13 14 14 14 15 13 8 7 8 9 8 5 4 5 5 6 9 12 14 15 17 18 20 22 24 25 25 26 26 26 25 26 27 28 27 27 26 27 29 29 29 31 32 33 33 33 32 31 32 32 33 34 34 35
20 18 16 18 22 20 17 15 15 16 16 17 17 17 18 18 18 17 17 18 18 18 18 18 18 17 16 15 15 14 13 11 12 12 11 12 12 9 8 9 9 9 5 4 4 4 4 6 8 11 13 15 17 19 19 20 21 22 23 24 24 25 26 27 27 28 28 26 25 27 27 28 29 31 33 34 35 35 34 33 33 33 33 34 35
20 20 15 12 18 22 20 17 16 15 17 18 18 19 18 18 17 16 16 16 17 17 17 17 18 17 16 15 14 15 13 11 12 10 7 7 9 8 9 11 13 13 10 6 3 4 4 5 6 8 10 12 15 17 19 19 20 20 20 21 22 24 25 27 27 27 28 27 27 28 27 26 28 30 32 34 36 37 36 35 33 33 32 33 34
20 21 19 11 10 14 14 13 14 16 17 18 19 20 18 17 16 15 15 16 16 15 16 15 16 16 16 15 14 14 13 10 10 9 7 8 8 8 8 9 12 14 11 7 4 4 4 5 6 6 8 9 11 13 15 17 19 20 21 21 21 21 23 25 25 25 26 27 28 28 27 26 27 30 32 34 36 37 37 35 33 32 31 31 32
21 21 22 16 6 6 9 12 15 16 17 18 19 19 18 16 15 15 15 15 16 16 16 16 16 16 16 15 14 14 13 11 10 9 9 9 8 9 12 10 11 11 8 5 4 4 4 5 5 6 7 8 9 11 12 13 16 18 20 21 21 21 22 23 24 25 25 26 28 28 27 25 26 29 31 33 35 36 37 36 33 32 30 30 30
20 21 24 23 15 14 11 13 16 16 17 19 20 19 18 16 15 14 15 16 17 17 17 17 16 16 15 15 14 13 12 11 10 9 9 10 8 11 14 11 8 8 6 5 5 5 5 5 5 6 7 8 9 10 11 11 14 15 17 19 21 23 23 23 24 25 26 27 27 28 26 25 25 27 30 32 34 35 36 37 34 32 31 30 30
18 21 24 25 20 16 13 16 17 17 18 19 20 19 17 16 15 14 15 16 16 17 18 17 16 16 15 14 13 12 11 10 10 9 9 9 8 10 13 11 9 8 7 8 8 8 8 7 6 7 8 9 9 10 10 11 13 15 16 18 20 22 23 23 21 20 22 24 25 26 25 24 24 25 27 29 32 34 35 37 36 34 32 31 30
19 23 24 23 21 18 17 19 19 19 18 18 18 19 18 16 15 15 15 16 16 16 17 16 16 15 14 14 13 12 11 9 9 8 7 7 8 10 12 12 10 8 8 10 10 10 10 9 9 9 9 10 10 11 10 11 12 14 15 15 16 20 22 22 19 17 18 21 22 24 24 24 24 24 26 28 30 33 35 36 37 36 35 33 31
22 24 23 22 21 19 19 19 19 18 18 17 17 18 18 16 15 15 16 16 16 16 15 15 15 15 14 14 13 12 11 9 8 7 6 7 9 10 9 10 10 10 11 12 11 11 11 11 11 11 11 12 12 12 12 12 13 14 13 12 12 16 18 18 18 18 20 20 20 22 23 24 24 23 24 26 28 30 33 35 37 37 37 35 33
16 18 18 18 18 19 19 18 18 18 17 16 16 17 17 15 15 15 16 17 18 17 16 15 14 14 13 14 14 12 11 10 8 7 7 8 9 9 9 10 11 12 13 13 13 13 13 13 13 13 12 12 12 12 13 14 15 14 13 11 10 10 11 13 14 17 20 20 19 20 21 22 23 23 23 24 25 27 30 33 35 37 38 37 37
14 16 16 16 16 16 16 17 17 17 15 14 14 16 16 15 15 16 16 18 19 18 18 17 16 14 13 14 14 12 11 10 9 9 8 8 9 9 10 11 12 13 13 14 15 14 14 14 15 14 13 13 13 13 14 15 15 15 14 13 10 9 10 11 12 14 17 19 19 19 20 21 22 23 23 24 24 25 28 30 33 37 38 37 38
17 18 18 16 14 13 14 15 16 14 13 13 14 14 14 14 14 14 16 17 19 19 19 18 16 14 13 13 13 12 11 10 9 9 9 9 9 10 10 11 12 13 14 15 15 16 16 16 16 15 15 15 15 15 15 15 15 15 16 15 14 13 13 13 14 15 17 19 20 21 21 22 23 23 24 25 24 25 27 28 30 35 37 37 39
16 16 15 16 15 14 13 14 15 14 14 13 12 11 12 13 12 12 13 15 17 18 19 19 17 15 13 12 11 11 10 9 9 10 9 10 10 11 11 12 13 14 15 15 16 16 16 17 17 17 17 17 17 17 17 17 15 15 17 17 17 16 15 15 17 18 20 21 22 22 22 23 23 24 24 25 25 25 27 28 29 31 34 36 39
15 14 15 17 16 15 14 14 15 15 15 13 11 11 12 12 11 12 12 12 13 15 17 18 18 17 15 12 11 11 10 9 9 9 10 10 10 11 12 13 13 15 16 16 17 17 17 18 19 19 19 19 19 19 18 19 18 16 17 19 19 19 18 18 19 20 21 22 22 23 23 23 23 24 25 25 26 26 27 29 29 30 31 34 35
13 14 15 16 16 15 14 14 15 15 15 13 12 13 13 13 13 13 14 13 12 13 15 16 17 17 16 14 12 12 12 11 11 11 11 11 11 12 12 13 14 15 16 17 17 18 18 19 19 20 20 21 21 21 20 21 20 17 18 21 21 21 22 22 21 21 22 23 23 23 23 24 24 25 26 26 26 27 28 28 29 29 31 32 32
11 11 13 15 15 14 13 14 15 16 16 15 15 15 16 17 17 17 16 14 13 15 16 15 16 17 16 15 13 12 12 12 13 12 12 12 12 13 13 14 14 15 15 16 16 17 18 18 19 20 20 21 22 22 22 23 22 20 22 23 23 22 22 23 23 23 23 24 24 24 23 24 24 25 26 27 27 27 27 27 27 27 28 29 30
7 8 10 12 13 14 14 14 15 16 17 16 15 16 16 17 19 21 18 16 17 19 19 17 16 16 16 15 14 12 11 12 13 13 13 13 13 13 13 14 14 14 14 15 15 16 17 17 18 19 20 21 22 22 22 23 23 23 24 25 24 24 22 23 24 24 24 24 24 25 25 24 24 25 25 27 28 28 26 26 27 27 27 28 29
6 8 9 10 12 14 14 15 16 17 18 16 16 16 15 14 16 18 19 20 22 23 21 18 17 17 15 15 14 13 12 12 13 13 13 12 12 12 13 13 14 14 14 15 15 16 16 16 17 18 18 19 20 21 21 22 23 24 25 24 24 24 24 24 25 24 24 24 25 25 25 24 24 24 24 26 27 26 25 25 26 26 27 28 29
8 9 10 12 13 14 16 16 17 18 18 17 17 16 16 16 17 17 18 21 23 22 20 18 18 17 15 14 14 13 12 12 13 13 12 12 11 11 11 12 13 13 14 14 15 15 15 15 16 17 17 18 19 19 20 21 22 23 24 24 24 24 25 25 25 25 25 25 25 26 26 25 24 23 23 24 25 25 25 25 25 25 27 27 27
11 11 12 13 14 15 16 17 18 20 20 18 18 18 18 19 20 20 18 19 21 20 18 17 17 17 14 13 13 12 11 12 13 13 12 12 11 10 10 10 11 11 12 12 13 13 13 14 14 15 15 16 17 18 19 20 21 22 23 23 23 24 24 25 25 25 25 25 26 26 25 24 23 23 23 23 24 25 26 26 25 25 25 25 24
Wind_Direction
277 279 281 285 288 289 287 285 284 284 285 286 286 288 291 293 292 292 292 292 292 293 293 292 291 291 292 292 293 295 296 297 298 300 302 306 309 313 315 315 312 309 305 302 298 293 290 286 280 277 275 274 275 275 274 278 279 268 258 252 246 244 240 233 228 226 223 218 219 222 221 226 231 230 236 244 237 228 222 204 189 171 159 157 155
276 280 285 289 290 288 286 284 283 284 285 286 287 290 292 293 292 291 292 291 292 293 292 291 290 290 290 290 292 293 294 295 296 297 300 303 306 309 312 312 309 306 303 299 295 290 286 281 275 273 273 273 274 276 276 276 277 270 261 255 250 246 242 236 231 229 227 222 222 224 225 229 234 233 234 243 240 231 225 210 193 178 166 162 160
277 281 286 289 288 286 285 284 283 284 284 286 287 289 291 291 291 291 291 291 292 292 291 290 289 289 289 289 291 292 293 295 296 297 298 300 303 306 308 309 308 304 301 295 289 284 279 275 270 270 271 270 271 274 274 271 273 271 264 260 255 249 244 239 233 231 230 226 224 226 227 230 236 238 236 240 241 234 228 217 199 185 174 167 165
277 280 283 286 286 284 284 285 285 284 283 285 287 288 289 290 290 290 290 291 292 291 290 289 288 289 289 289 290 292 293 295 296 296 297 299 301 302 304 305 305 301 296 289 283 277 272 268 265 265 267 264 263 269 270 268 272 272 267 264 259 252 246 241 236 233 231 230 227 228 230 231 237 241 239 240 242 238 232 225 209 195 183 175 170
276 278 281 284 285 284 284 286 287 284 282 284 286 287 288 289 289 289 290 291 290 289 288 288 288 288 287 288 289 291 293 293 294 295 296 297 298 299 299 300 300 297 291 283 275 270 264 260 258 258 260 259 258 264 267 266 269 272 268 264 260 255 248 242 237 233 232 232 230 230 232 233 238 242 241 241 243 240 236 231 221 207 195 184 177
276 278 279 283 286 284 284 287 286 281 280 282 285 287 288 288 288 288 290 290 289 288 287 286 286 286 286 286 288 290 291 292 292 293 294 294 294 294 294 294 294 290 285 276 269 262 256 254 251 250 252 253 254 259 264 262 264 269 268 264 261 258 253 246 240 235 232 233 233 233 234 237 241 245 243 242 243 242 237 235 230 219 207 194 186
278 278 278 282 285 282 281 283 282 278 278 281 284 286 286 285 285 287 288 288 287 286 286 285 284 283 283 284 286 287 289 291 292 292 291 290 289 289 289 289 289 284 279 272 264 256 250 249 245 243 245 246 247 251 258 259 259 264 267 265 263 262 258 252 245 239 234 234 236 235 236 240 243 247 246 242 243 244 240 236 234 230 220 208 197
276 277 278 281 282 279 277 276 274 275 278 280 282 283 282 282 283 285 285 285 284 284 284 283 281 281 282 282 284 286 289 290 291 290 288 286 285 284 285 285 283 279 275 269 262 253 245 243 239 236 239 240 241 244 250 255 256 259 264 266 264 263 261 257 252 244 238 236 237 238 238 240 243 247 248 245 243 244 244 239 236 234 231 221 209
274 276 278 280 278 275 274 273 272 273 277 279 280 280 279 280 282 283 283 282 282 281 281 280 280 280 280 282 284 286 288 290 290 289 287 285 282 281 281 281 279 276 274 266 258 249 242 241 235 232 235 237 239 240 243 248 252 257 261 264 264 262 261 261 257 249 243 239 239 240 239 241 244 246 248 248 245 244 245 244 238 236 236 231 220
274 276 278 278 275 274 274 275 274 274 275 277 276 277 279 280 281 281 281 280 279 278 279 280 280 280 281 282 285 286 288 289 288 287 286 284 282 280 279 278 277 276 273 264 255 246 242 241 234 230 232 234 237 237 237 241 246 253 258 262 262 260 262 262 258 253 248 243 241 242 241 242 244 246 248 248 248 246 246 246 243 239 238 239 232
273 273 274 274 274 274 274 275 275 274 274 274 273 275 277 279 279 279 278 276 276 276 278 280 281 281 282 283 285 286 287 288 287 287 285 283 281 279 277 277 276 274 270 263 253 244 241 240 234 230 231 234 236 236 234 236 242 249 255 258 259 259 260 261 259 255 251 247 245 244 244 244 245 247 249 248 248 248 248 249 245 241 239 241 240
273 273 270 269 272 273 272 274 274 272 272 271 270 272 274 276 274 273 272 272 274 276 278 281 281 281 282 284 286 287 288 288 288 286 284 282 281 280 277 276 276 274 269 261 249 241 238 237 234 231 231 234 235 236 235 234 237 243 249 252 254 257 258 258 258 256 253 251 249 247 246 247 247 247 248 249 249 249 250 250 247 243 240 240 241
275 276 268 264 268 270 269 271 271 269 268 267 267 269 270 269 268 267 268 270 274 277 279 280 280 282 284 286 288 289 289 289 288 285 282 281 281 281 279 277 275 273 269 259 245 237 235 235 235 233 232 234 235 235 236 235 234 237 243 247 250 253 255 256 255 255 254 253 251 249 248 248 249 248 248 249 249 251 251 251 248 245 243 240 240
276 277 266 259 263 265 265 267 267 267 264 263 263 264 263 262 262 263 266 270 275 278 278 279 281 284 286 287 289 289 289 288 287 286 283 281 280 280 280 279 276 273 268 260 247 237 235 235 235 235 234 233 234 235 235 235 233 234 238 243 246 249 252 252 252 252 254 254 251 249 249 249 249 249 248 248 249 251 253 253 251 246 244 243 240
275 274 264 257 257 259 261 263 265 262 258 258 259 258 256 257 260 264 269 274 278 279 279 281 283 285 285 285 285 284 285 285 285 286 285 282 279 279 279 279 277 273 267 260 252 244 239 238 236 237 238 235 234 234 235 234 232 233 235 240 243 245 247 248 249 250 253 255 253 250 249 250 251 251 250 248 248 250 253 254 253 248 244 244 242
270 268 263 258 255 256 258 260 258 255 253 254 253 251 253 257 262 267 274 278 279 279 281 282 283 283 282 281 280 280 281 281 281 283 284 282 280 277 276 275 274 271 263 255 251 248 245 242 240 241 242 239 236 235 235 234 232 231 233 238 240 242 244 245 246 246 250 255 256 252 250 252 253 254 253 250 248 248 252 253 253 250 247 245 244
265 265 263 260 256 256 255 253 253 253 252 248 247 249 253 258 264 270 275 277 277 278 279 282 282 281 281 280 281 281 281 279 279 280 282 283 280 277 275 272 269 265 257 249 246 247 247 246 244 244 246 244 241 238 237 236 233 230 232 237 238 240 241 242 242 243 246 251 255 253 250 251 254 256 257 256 252 250 252 254 253 252 251 248 245
263 263 263 261 253 250 247 246 248 247 243 241 244 248 253 259 264 269 272 273 274 277 281 283 284 284 284 283 282 280 278 277 278 280 283 283 282 280 277 273 267 262 254 246 243 244 245 244 243 245 246 246 245 242 239 237 234 229 229 235 238 238 238 239 239 240 242 246 251 254 252 250 252 256 259 260 258 254 254 255 255 254 253 250 248
263 261 261 259 248 243 240 238 237 235 236 239 244 248 252 257 262 266 269 272 276 279 281 281 280 281 280 278 276 274 275 278 280 282 283 284 285 284 280 277 270 261 253 246 243 243 244 243 241 242 243 245 244 242 239 236 233 227 225 231 236 238 237 237 238 237 238 241 246 251 253 251 250 252 256 259 259 257 254 254 254 254 253 252 250
264 260 257 254 242 235 233 230 229 231 235 239 242 245 249 254 261 267 270 274 278 279 277 275 274 273 274 276 277 278 279 281 283 285 286 286 286 283 281 281 277 265 251 244 243 242 243 243 241 240 240 242 242 240 238 234 231 225 222 226 233 237 236 236 237 237 236 238 242 246 250 251 250 248 251 256 257 257 253 251 251 251 251 251 250
265 256 250 247 239 231 227 225 226 230 232 235 238 241 247 255 262 269 273 274 274 273 272 273 272 272 274 278 281 281 280 278 284 290 288 289 290 287 283 280 276 269 256 243 241 242 243 243 242 240 239 240 240 241 240 236 231 223 220 223 231 235 236 237 238 238 237 237 238 242 247 250 251 249 248 251 255 255 253 251 248 248 249 250 250
265 250 242 236 233 230 224 221 222 226 229 233 238 243 250 256 263 269 272 272 271 270 271 272 272 272 275 278 278 279 279 278 284 290 289 289 289 287 285 282 278 270 261 249 240 240 242 243 242 241 239 239 240 241 241 239 233 225 219 222 229 233 236 237 238 238 238 237 238 241 245 248 250 250 248 249 252 254 253 252 249 246 246 247 249
265 246 230 218 222 226 223 223 223 225 229 235 240 245 251 255 262 267 268 270 269 269 270 271 272 274 277 278 277 276 278 281 286 289 291 290 286 283 281 282 280 270 262 253 242 238 240 243 243 242 241 242 243 242 241 239 235 227 222 222 228 233 235 236 237 238 238 238 238 241 245 247 249 250 249 248 249 252 253 253 251 248 246 246 248
264 234 216 208 215 221 222 223 223 225 233 244 246 243 252 261 263 262 263 268 268 269 270 272 276 278 280 280 277 275 276 282 287 287 290 291 285 282 279 275 274 267 259 253 246 239 239 241 243 243 243 243 244 244 243 241 236 228 224 225 227 231 233 235 236 238 238 238 239 241 245 247 248 249 250 249 248 249 251 252 252 251 249 247 247
242 220 230 221 215 218 222 223 222 227 237 249 253 245 254 262 260 259 261 266 271 275 278 279 282 282 282 281 278 277 279 283 285 283 286 290 287 284 282 276 270 259 251 250 248 242 239 240 241 242 243 244 246 246 245 242 237 230 226 226 228 230 233 235 236 237 239 239 239 241 244 247 249 250 251 251 250 248 249 251 252 252 250 248 247
227 235 267 248 228 223 222 224 224 230 238 247 258 260 261 259 255 257 262 270 278 283 284 285 285 285 283 282 280 280 284 285 284 281 282 289 291 285 280 280 274 261 253 251 250 245 241 240 239 240 242 244 245 245 246 243 238 232 228 228 230 231 232 234 236 238 240 240 240 241 243 245 249 251 252 253 252 250 249 250 251 252 251 249 248
240 252 267 253 235 222 216 221 224 230 240 248 258 263 263 261 258 258 263 271 279 287 292 289 285 286 286 285 285 286 289 288 286 285 284 290 293 283 276 280 276 266 262 259 255 252 247 242 240 239 240 242 245 246 247 245 239 233 229 229 231 231 231 233 234 237 240 241 241 241 242 244 247 249 250 252 253 252 250 249 250 251 251 250 249
249 250 256 249 229 213 212 220 225 230 238 250 257 260 265 270 267 262 265 271 278 291 300 298 291 288 290 290 290 292 293 293 292 291 288 289 292 290 282 277 270 265 265 264 261 259 253 247 243 240 240 242 244 246 246 244 240 235 230 228 230 231 231 231 233 236 239 242 243 242 241 242 244 247 249 250 251 252 250 249 249 250 251 251 250
253 247 247 242 224 213 217 221 225 231 237 250 259 263 276 281 277 273 274 276 279 287 293 297 296 292 292 293 294 295 296 295 293 293 293 292 293 295 286 273 265 263 263 265 268 267 260 250 244 241 241 241 242 243 244 243 241 238 235 232 230 230 230 230 231 234 237 240 242 243 242 242 243 245 248 249 249 250 250 249 248 248 250 250 251
247 245 238 235 230 221 220 224 229 238 242 249 256 266 278 279 276 279 280 280 282 286 290 295 298 298 297 296 297 297 295 292 290 291 296 300 299 294 279 267 263 262 266 271 270 268 263 252 245 243 243 243 243 243 242 242 242 240 240 240 238 235 232 230 230 233 235 237 239 241 242 243 244 245 248 249 249 249 250 250 249 248 248 249 250
241 238 227 220 226 227 226 234 242 246 245 244 252 267 276 273 271 276 281 285 289 291 295 299 301 302 300 296 294 294 296 295 292 290 291 294 294 287 268 264 263 259 265 277 271 266 262 253 249 247 248 248 247 246 244 243 244 244 243 243 242 240 235 233 234 237 239 238 236 237 240 241 243 244 246 249 251 250 250 250 249 248 248 248 249
242 236 225 211 209 222 232 238 246 253 259 257 260 271 277 275 274 276 280 284 288 290 294 298 298 298 296 290 288 292 300 304 301 294 288 283 282 279 262 262 253 233 241 292 288 275 263 255 255 255 255 253 250 247 246 246 248 248 249 247 245 243 239 237 237 240 244 243 238 237 239 240 241 242 244 247 249 250 249 249 248 248 247 248 248
240 234 230 223 217 217 223 230 243 258 268 271 273 278 278 277 280 282 282 282 283 286 289 291 291 292 293 293 291 290 292 299 303 304 299 283 275 270 259 255 238 231 263 315 307 285 273 266 266 266 264 259 254 249 247 247 249 250 250 250 249 248 244 242 241 242 244 245 242 241 241 242 244 243 244 245 247 247 247 247 247 248 248 248 247
236 227 220 222 216 207 210 228 244 257 263 268 273 277 277 279 284 288 288 285 282 282 281 281 284 288 292 292 290 288 285 290 296 300 311 293 273 262 255 254 248 253 273 301 315 295 282 278 273 274 273 267 260 254 249 249 251 253 253 252 252 253 252 249 246 245 245 245 245 245 243 242 243 245 245 246 246 246 246 246 247 249 249 249 249
238 228 220 206 188 196 210 232 250 257 259 262 267 271 273 277 283 288 289 286 282 278 276 278 283 286 289 290 289 288 285 286 285 289 297 289 273 253 237 237 241 249 263 276 290 284 274 271 260 263 269 269 266 259 254 252 253 256 257 257 257 258 259 257 253 249 247 247 246 246 246 243 241 243 244 246 247 246 247 247 248 249 250 250 250
242 231 222 211 210 263 248 244 256 260 259 261 267 269 269 273 280 285 288 288 287 286 285 286 287 288 290 291 291 290 288 285 280 284 289 285 279 249 221 209 217 229 243 256 261 259 260 258 252 252 253 255 260 260 258 257 258 259 260 261 261 261 259 259 256 253 251 250 247 245 246 246 244 243 243 245 247 247 246 246 247 249 250 250 249
239 229 223 226 259 292 266 250 261 262 262 266 269 268 266 272 278 282 286 289 290 291 291 290 289 288 290 290 290 290 289 290 285 285 287 284 283 255 230 218 212 213 221 226 228 241 245 243 249 251 246 247 250 254 257 257 260 262 261 261 260 258 254 252 251 253 255 251 246 244 244 246 245 245 245 246 248 247 246 245 246 247 249 250 249
244 233 227 236 264 280 261 258 264 263 264 266 266 265 267 273 278 283 287 285 284 285 285 284 285 286 285 284 287 289 289 293 294 292 290 281 273 258 241 232 224 218 223 225 223 231 238 240 243 244 246 249 249 250 251 254 258 259 259 261 262 259 254 250 247 249 255 249 242 242 242 242 244 246 247 247 248 247 245 243 243 245 247 249 249
256 245 238 246 262 263 256 259 260 261 261 261 263 265 268 272 279 288 290 285 282 280 280 279 279 281 282 281 281 284 288 289 293 292 287 277 264 253 237 227 226 225 226 228 228 229 233 237 237 238 243 247 250 252 253 256 259 259 260 263 267 262 252 248 245 240 245 241 236 239 239 239 242 245 248 248 247 247 244 241 241 243 246 248 249
259 253 246 249 253 250 251 256 257 259 259 260 265 267 269 275 283 292 296 296 292 287 282 278 276 279 281 282 279 282 286 285 286 283 274 267 262 259 248 236 232 229 225 229 235 235 235 237 236 236 240 244 249 254 254 257 259 258 260 264 274 266 244 238 237 229 231 234 234 239 241 240 242 245 248 247 247 247 245 242 240 241 244 246 248
251 245 243 248 251 252 256 260 261 261 262 263 266 271 277 285 291 297 302 303 302 299 294 288 284 283 282 282 282 284 287 286 286 277 265 258 252 249 243 234 229 225 225 230 236 239 241 243 243 241 241 243 248 253 253 254 256 254 254 262 281 270 237 229 229 220 223 230 232 237 241 243 244 245 247 246 246 247 246 244 241 240 243 245 247
245 246 254 260 260 260 263 266 264 262 259 259 267 277 286 293 297 301 304 304 305 305 303 298 293 290 287 285 283 283 283 284 285 279 271 265 255 245 235 228 226 225 227 231 235 240 244 245 248 250 250 249 249 254 256 254 256 257 255 259 272 268 245 238 233 223 223 227 231 235 239 242 243 245 247 246 246 247 247 245 242 241 243 246 248
259 261 264 265 264 266 267 267 264 260 257 260 267 277 288 296 300 303 306 306 305 303 302 300 296 291 288 285 282 280 278 277 275 274 272 269 264 257 249 240 234 232 233 235 237 241 245 247 250 253 254 254 253 257 260 258 255 257 257 254 258 260 253 247 243 238 235 235 237 240 241 241 241 242 245 247 247 247 248 247 245 243 244 246 248
264 263 262 262 263 263 264 262 262 263 262 263 262 270 287 296 297 300 303 303 302 301 299 298 297 293 287 283 279 273 269 268 267 268 267 265 262 258 257 253 248 246 245 244 245 246 248 250 252 253 254 254 255 256 260 262 254 252 256 253 254 256 254 252 250 247 246 244 244 245 245 244 241 240 241 245 247 247 248 248 245 244 244 246 249
261 259 259 261 259 257 259 260 265 266 263 260 255 261 280 290 289 287 286 290 298 303 302 300 298 296 291 285 279 271 262 254 254 258 257 254 253 252 253 253 251 251 251 251 251 251 252 252 252 253 252 252 253 253 255 259 254 252 258 255 250 251 251 251 251 251 252 252 251 250 250 250 247 244 242 244 246 246 247 246 244 242 242 245 250
249 251 253 255 256 255 258 262 267 267 261 258 255 255 265 276 283 280 273 275 292 308 309 304 299 296 292 286 280 275 267 256 246 243 244 245 245 245 245 245 246 246 248 248 248 249 249 248 249 250 250 250 251 251 251 254 253 251 252 249 247 249 250 250 251 255 257 259 259 256 255 255 254 251 248 247 247 247 246 247 247 246 245 247 251
241 246 247 250 256 258 260 263 266 267 264 260 252 249 257 268 275 278 275 272 288 308 310 306 301 293 286 281 277 278 275 266 256 246 242 242 242 243 244 243 245 246 247 249 249 250 249 249 249 249 249 248 249 249 249 250 251 249 247 246 248 250 251 252 253 256 258 260 261 259 258 258 258 256 253 252 251 249 248 249 252 253 252 252 252
230 238 245 251 257 260 260 259 259 262 263 256 245 241 251 265 272 273 272 270 284 301 302 300 300 293 286 280 274 275 277 272 265 257 251 248 247 249 251 253 254 254 256 257 257 257 256 254 253 251 250 248 248 249 250 251 251 250 250 250 251 251 252 255 255 256 258 259 260 260 260 260 260 259 257 255 254 251 250 250 253 254 254 253 251
213 217 229 239 249 256 256 252 252 256 259 256 247 244 252 268 278 276 270 269 280 292 293 293 296 295 292 287 278 273 275 274 268 263 258 253 252 253 256 260 262 263 264 264 264 263 260 258 256 254 252 251 251 252 252 253 253 253 254 254 255 256 256 257 258 258 260 261 261 261 262 261 260 260 258 254 252 251 249 248 249 250 252 253 253
233 226 228 235 244 255 260 256 252 255 260 261 256 254 258 271 280 279 272 271 278 287 289 288 291 296 296 290 282 274 272 274 268 261 258 253 252 254 256 258 262 265 267 266 265 264 262 261 259 258 256 255 255 255 255 255 256 256 258 258 258 258 258 259 260 259 259 260 261 261 262 261 260 260 259 253 249 246 246 245 246 249 251 250 250
253 248 243 246 251 261 270 270 262 256 255 256 258 261 264 273 279 279 277 276 279 285 288 286 288 296 298 289 280 273 270 271 266 257 251 248 245 246 250 253 257 260 262 264 265 265 263 262 261 260 258 257 256 256 256 256 257 257 259 260 259 259 260 262 263 262 262 262 262 263 263 262 261 261 260 255 247 244 243 244 247 250 250 246 245
Height
5844 5845 5845 5845 5844 5844 5843 5843 5842 5841 5841 5841 5841 5842 5842 5842 5842 5843 5843 5843 5843 5843 5842 5842 5842 5842 5841 5841 5840 5839 5839 5839 5838 5838 5837 5837 5836 5836 5835 5835 5834 5834 5834 5833 5833 5834 5834 5834 5834 5834 5835 5835 5836 5836 5837 5838 5838 5838 5838 5838 5838 5839 5839 5839 5839 5840 5841 5841 5842 5842 5841 5841 5841 5841 5841 5841 5841 5842 5842 5841 5841 5841 5840 5840 5840
5843 5843 5843 5843 5843 5843 5842 5841 5841 5840 5839 5839 5840 5840 5840 5840 5840 5841 5841 5841 5841 5841 5841 5841 5841 5840 5840 5839 5838 5838 5838 5837 5837 5837 5836 5836 5836 5835 5835 5834 5833 5833 5833 5832 5832 5833 5833 5833 5833 5833 5834 5835 5836 5836 5837 5837 5838 5838 5838 5838 5838 5838 5838 5838 5839 5840 5840 5841 5841 5842 5841 5841 5841 5841 5841 5841 5841 5842 5842 5841 5841 5841 5841 5840 5841
5841 5841 5842 5842 5841 5841 5841 5840 5839 5839 5838 5838 5838 5839 5838 5838 5839 5839 5840 5840 5840 5840 5839 5839 5839 5839 5838 5838 5837 5836 5836 5836 5835 5835 5835 5835 5834 5834 5833 5833 5832 5832 5832 5831 5831 5832 5832 5832 5832 5833 5834 5835 5835 5836 5836 5837 5837 5837 5838 5838 5837 5837 5837 5838 5839 5839 5840 5840 5841 5841 5841 5841 5841 5841 5841 5841 5841 5842 5842 5841 5841 5841 5841 5841 5841
5840 5840 5840 5840 5840 5839 5839 5839 5838 5838 5837 5837 5837 5837 5837 5837 5837 5838 5838 5838 5838 5838 5838 5838 5838 5838 5837 5836 5836 5835 5835 5835 5834 5834 5833 5833 5833 5833 5832 5832 5831 5831 5830 5830 5830 5831 5831 5831 5831 5832 5833 5834 5835 5835 5835 5836 5836 5837 5837 5837 5837 5837 5837 5837 5838 5838 5839 5840 5840 5840 5840 5841 5841 5841 5841 5841 5841 5842 5842 5841 5841 5841 5841 5841 5841
5838 5838 5838 5838 5838 5838 5838 5837 5837 5836 5836 5836 5835 5836 5835 5835 5836 5836 5836 5836 5836 5836 5836 5837 5837 5836 5836 5835 5835 5834 5834 5833 5833 5832 5832 5832 5831 5831 5831 5830 5830 5830 5829 5829 5829 5830 5830 5830 5831 5832 5833 5833 5834 5835 5835 5835 5836 5836 5836 5836 5836 5836 5836 5836 5837 5838 5838 5839 5839 5839 5840 5840 5840 5841 5841 5841 5841 5842 5842 5842 5841 5841 5841 5841 5841
5836 5836 5836 5836 5836 5836 5836 5836 5835 5835 5835 5834 5834 5834 5834 5834 5834 5834 5835 5835 5834 5835 5835 5835 5836 5835 5835 5834 5834 5833 5832 5832 5831 5831 5831 5830 5830 5829 5829 5829 5829 5828 5828 5828 5828 5829 5829 5829 5830 5831 5832 5833 5834 5834 5834 5834 5835 5835 5835 5835 5835 5835 5835 5835 5836 5837 5838 5838 5838 5839 5839 5839 5840 5840 5841 5841 5841 5841 5841 5841 5841 5841 5841 5841 5841
5833 5833 5833 5834 5834 5834 5835 5835 5835 5834 5834 5833 5833 5833 5832 5832 5832 5833 5833 5833 5833 5833 5833 5834 5834 5833 5833 5832 5832 5832 5831 5831 5830 5830 5829 5829 5828 5828 5827 5827 5827 5827 5827 5827 5827 5827 5828 5828 5829 5830 5831 5832 5833 5833 5833 5834 5834 5834 5835 5835 5835 5835 5835 5835 5835 5836 5837 5837 5838 5838 5838 5839 5839 5840 5840 5840 5841 5841 5841 5841 5841 5841 5841 5841 5841
5831 5831 5831 5831 5832 5832 5833 5834 5834 5833 5833 5832 5832 5831 5831 5831 5831 5831 5831 5831 5831 5831 5831 5832 5832 5831 5831 5830 5830 5830 5830 5829 5829 5828 5827 5827 5826 5826 5825 5826 5826 5825 5825 5825 5826 5826 5826 5827 5828 5829 5830 5831 5832 5832 5833 5833 5833 5834 5834 5834 5834 5834 5833 5834 5835 5836 5836 5837 5837 5837 5837 5838 5838 5839 5839 5840 5840 5840 5841 5841 5841 5841 5842 5842 5842
5829 5829 5828 5828 5829 5830 5830 5831 5832 5832 5831 5831 5830 5830 5830 5830 5830 5829 5829 5829 5829 5830 5830 5830 5829 5829 5829 5828 5829 5829 5828 5828 5827 5826 5825 5825 5825 5825 5824 5824 5824 5824 5824 5824 5824 5825 5825 5825 5827 5828 5829 5830 5830 5831 5832 5832 5832 5833 5834 5834 5834 5833 5832 5833 5835 5835 5836 5836 5836 5836 5836 5837 5837 5838 5838 5839 5840 5840 5840 5840 5841 5841 5842 5842 5842
5827 5827 5826 5826 5827 5828 5828 5829 5829 5829 5830 5829 5829 5828 5828 5828 5828 5828 5828 5828 5827 5827 5827 5827 5827 5827 5826 5826 5827 5827 5826 5826 5825 5824 5824 5823 5823 5823 5823 5823 5823 5823 5823 5823 5823 5824 5824 5824 5825 5826 5827 5828 5829 5830 5831 5831 5832 5832 5833 5833 5833 5832 5832 5833 5834 5835 5835 5835 5835 5835 5836 5836 5836 5837 5838 5838 5839 5839 5840 5840 5840 5841 5841 5842 5842
5825 5825 5824 5824 5825 5826 5827 5827 5827 5827 5827 5828 5827 5827 5827 5827 5827 5826 5826 5826 5825 5825 5825 5825 5825 5825 5824 5824 5824 5824 5824 5824 5823 5823 5823 5822 5822 5822 5822 5821 5822 5822 5822 5822 5822 5822 5822 5823 5824 5825 5826 5827 5828 5829 5829 5830 5831 5831 5832 5833 5832 5831 5831 5832 5833 5834 5834 5834 5834 5835 5835 5835 5835 5836 5837 5837 5838 5839 5839 5840 5840 5840 5841 5842 5842
5822 5822 5822 5823 5823 5824 5825 5825 5825 5825 5825 5825 5825 5825 5825 5825 5825 5825 5824 5824 5824 5824 5823 5823 5822 5822 5822 5822 5821 5822 5822 5822 5822 5822 5822 5821 5820 5820 5820 5820 5820 5820 5820 5820 5821 5821 5821 5821 5822 5824 5825 5825 5826 5827 5828 5829 5830 5831 5831 5831 5831 5831 5831 5831 5832 5833 5833 5833 5834 5834 5834 5834 5835 5835 5836 5836 5837 5838 5838 5839 5839 5840 5841 5841 5842
5820 5820 5820 5820 5821 5822 5822 5822 5822 5823 5823 5823 5823 5823 5823 5823 5823 5823 5823 5823 5823 5822 5822 5821 5820 5820 5819 5819 5820 5820 5820 5820 5821 5821 5820 5820 5819 5818 5818 5818 5818 5818 5819 5819 5819 5819 5820 5820 5821 5822 5823 5824 5824 5826 5827 5827 5829 5830 5830 5830 5830 5830 5830 5830 5831 5831 5832 5832 5833 5833 5833 5834 5834 5834 5835 5836 5836 5837 5837 5838 5839 5840 5840 5841 5841
5818 5818 5817 5817 5819 5819 5819 5820 5820 5821 5821 5820 5820 5820 5821 5821 5821 5821 5821 5822 5822 5821 5820 5819 5818 5818 5818 5818 5818 5818 5818 5819 5819 5818 5818 5818 5818 5817 5817 5817 5817 5817 5817 5818 5818 5818 5818 5818 5819 5820 5821 5822 5823 5824 5825 5826 5828 5829 5829 5829 5829 5829 5829 5829 5830 5830 5831 5831 5832 5832 5833 5833 5833 5833 5834 5835 5836 5836 5837 5837 5838 5839 5840 5840 5841
5816 5815 5814 5814 5816 5816 5816 5817 5818 5818 5818 5817 5818 5818 5819 5819 5819 5820 5820 5820 5820 5819 5817 5817 5817 5817 5817 5817 5817 5816 5816 5816 5816 5816 5816 5816 5816 5816 5815 5816 5816 5816 5816 5816 5817 5817 5817 5817 5817 5818 5819 5821 5823 5823 5824 5825 5826 5827 5828 5828 5828 5828 5828 5828 5829 5829 5829 5830 5831 5832 5832 5832 5832 5833 5834 5835 5835 5836 5836 5837 5838 5838 5839 5840 5840
5813 5813 5812 5810 5812 5813 5814 5815 5815 5815 5815 5815 5816 5817 5817 5818 5818 5819 5819 5818 5817 5816 5815 5815 5815 5815 5815 5815 5814 5814 5814 5814 5813 5813 5813 5813 5814 5814 5814 5814 5814 5814 5814 5815 5815 5816 5816 5816 5816 5817 5818 5820 5822 5822 5823 5824 5825 5826 5827 5827 5827 5827 5826 5827 5827 5828 5829 5829 5830 5831 5832 5832 5832 5833 5833 5834 5835 5835 5835 5836 5837 5838 5838 5839 5840
5810 5810 5809 5807 5808 5810 5811 5812 5812 5812 5813 5814 5815 5815 5816 5817 5817 5817 5817 5815 5813 5812 5812 5813 5813 5813 5813 5813 5813 5813 5812 5811 5811 5810 5810 5811 5811 5811 5812 5812 5812 5812 5813 5813 5813 5814 5815 5815 5815 5816 5816 5818 5820 5821 5821 5823 5824 5825 5826 5826 5826 5826 5826 5826 5826 5827 5828 5828 5829 5830 5831 5831 5832 5832 5833 5833 5834 5835 5835 5835 5836 5837 5838 5838 5839
5807 5808 5807 5805 5806 5808 5808 5810 5810 5810 5811 5812 5813 5814 5815 5815 5815 5814 5813 5811 5810 5810 5811 5812 5812 5812 5812 5812 5812 5810 5808 5808 5807 5807 5808 5808 5809 5809 5809 5810 5811 5811 5811 5811 5812 5812 5813 5813 5814 5814 5814 5815 5817 5819 5820 5821 5822 5824 5825 5825 5825 5824 5825 5825 5825 5826 5827 5827 5828 5828 5830 5831 5831 5832 5832 5833 5834 5834 5835 5835 5835 5836 5837 5838 5838
5804 5805 5806 5804 5805 5806 5806 5808 5809 5809 5810 5811 5812 5813 5812 5812 5812 5811 5809 5808 5809 5810 5810 5810 5809 5809 5809 5808 5807 5805 5805 5805 5804 5804 5805 5806 5806 5807 5808 5808 5809 5809 5810 5810 5810 5811 5811 5811 5812 5812 5812 5813 5815 5816 5818 5819 5820 5822 5823 5823 5823 5823 5823 5823 5824 5824 5825 5826 5827 5827 5828 5829 5830 5831 5832 5832 5833 5833 5834 5834 5835 5835 5836 5837 5838
5802 5803 5803 5803 5803 5804 5805 5806 5806 5807 5809 5810 5810 5810 5809 5809 5809 5808 5807 5808 5808 5807 5807 5807 5806 5806 5805 5804 5804 5805 5804 5803 5802 5803 5803 5804 5804 5805 5805 5806 5807 5808 5808 5808 5809 5809 5809 5810 5810 5810 5811 5812 5813 5814 5815 5817 5818 5820 5821 5822 5822 5821 5822 5822 5822 5823 5824 5825 5826 5826 5827 5827 5829 5830 5831 5831 5832 5833 5833 5834 5834 5834 5835 5836 5837
5800 5801 5801 5801 5802 5803 5804 5804 5804 5805 5807 5807 5807 5806 5806 5806 5806 5806 5805 5806 5805 5803 5804 5804 5803 5803 5802 5803 5804 5804 5803 5801 5801 5801 5801 5802 5802 5802 5803 5804 5805 5806 5806 5807 5807 5807 5808 5808 5808 5808 5809 5810 5811 5812 5814 5815 5816 5818 5819 5820 5820 5819 5820 5820 5822 5823 5823 5824 5824 5825 5825 5826 5827 5829 5830 5831 5831 5832 5832 5833 5833 5834 5834 5835 5836
5798 5797 5797 5798 5800 5801 5801 5801 5802 5803 5804 5804 5803 5802 5802 5803 5804 5804 5803 5802 5801 5800 5800 5801 5800 5801 5801 5801 5802 5801 5800 5799 5799 5799 5798 5799 5799 5800 5801 5802 5802 5804 5804 5805 5805 5805 5805 5806 5806 5806 5807 5808 5809 5810 5811 5813 5814 5816 5818 5819 5818 5817 5818 5819 5821 5821 5822 5822 5823 5824 5824 5825 5825 5827 5829 5830 5830 5831 5831 5832 5833 5833 5834 5834 5835
5794 5792 5792 5795 5798 5798 5798 5798 5798 5800 5801 5800 5798 5798 5799 5800 5802 5801 5800 5799 5798 5798 5798 5798 5798 5799 5799 5799 5799 5798 5798 5798 5798 5797 5795 5796 5796 5797 5799 5800 5800 5801 5802 5802 5802 5803 5803 5803 5804 5804 5805 5806 5807 5808 5809 5810 5812 5814 5816 5817 5816 5816 5816 5818 5819 5820 5820 5821 5821 5822 5823 5823 5824 5825 5827 5828 5829 5830 5830 5831 5832 5833 5833 5834 5834
5793 5794 5791 5793 5795 5795 5795 5794 5795 5798 5799 5798 5794 5793 5797 5799 5800 5798 5797 5797 5796 5797 5797 5797 5796 5797 5798 5798 5797 5796 5795 5796 5795 5794 5793 5793 5794 5795 5797 5798 5798 5799 5799 5800 5800 5800 5801 5801 5802 5802 5803 5803 5804 5806 5807 5808 5809 5812 5814 5815 5815 5814 5815 5816 5817 5818 5819 5819 5820 5821 5822 5822 5823 5824 5825 5827 5828 5829 5829 5830 5831 5832 5833 5833 5833
5792 5794 5792 5791 5791 5791 5790 5790 5793 5796 5798 5797 5792 5791 5796 5797 5797 5796 5796 5796 5795 5796 5796 5796 5795 5795 5796 5795 5795 5794 5794 5793 5792 5792 5791 5791 5792 5794 5795 5795 5796 5796 5797 5797 5797 5798 5798 5798 5799 5800 5801 5801 5802 5803 5804 5805 5807 5809 5811 5812 5813 5813 5813 5814 5815 5816 5817 5817 5818 5819 5820 5821 5821 5822 5823 5825 5826 5828 5828 5829 5830 5831 5832 5832 5833
5790 5790 5789 5787 5786 5786 5788 5789 5792 5796 5796 5795 5791 5792 5795 5795 5794 5795 5795 5794 5794 5794 5794 5794 5793 5793 5793 5793 5792 5792 5792 5790 5789 5789 5789 5789 5790 5791 5792 5793 5793 5794 5794 5795 5795 5796 5796 5796 5796 5797 5798 5799 5800 5800 5802 5803 5804 5806 5808 5810 5811 5811 5812 5812 5814 5814 5815 5815 5816 5817 5818 5819 5820 5820 5821 5823 5824 5826 5827 5828 5828 5829 5830 5831 5832
5789 5788 5785 5782 5782 5784 5788 5790 5792 5794 5793 5792 5791 5793 5794 5793 5793 5793 5793 5792 5792 5791 5791 5791 5790 5789 5789 5789 5789 5789 5789 5788 5788 5788 5787 5787 5787 5788 5789 5790 5791 5792 5792 5792 5793 5793 5793 5794 5794 5795 5796 5797 5798 5798 5799 5800 5802 5804 5806 5807 5808 5808 5809 5810 5812 5812 5813 5813 5814 5815 5816 5817 5818 5819 5819 5821 5822 5823 5825 5826 5827 5828 5829 5829 5830
5786 5785 5783 5782 5783 5785 5786 5787 5789 5790 5790 5790 5791 5793 5793 5792 5791 5791 5790 5789 5789 5789 5788 5788 5787 5787 5786 5785 5785 5786 5787 5788 5787 5786 5786 5785 5785 5786 5787 5788 5789 5790 5790 5790 5791 5791 5791 5791 5792 5793 5794 5795 5796 5796 5797 5798 5799 5801 5803 5804 5805 5805 5806 5808 5809 5809 5810 5811 5812 5813 5814 5815 5816 5817 5817 5818 5819 5821 5822 5824 5825 5826 5827 5827 5828
5782 5781 5781 5782 5782 5781 5782 5784 5786 5787 5787 5788 5789 5790 5791 5790 5789 5788 5787 5786 5787 5787 5786 5785 5784 5784 5784 5783 5783 5785 5786 5787 5787 5786 5786 5785 5785 5784 5785 5786 5787 5788 5788 5789 5789 5789 5789 5790 5790 5791 5792 5793 5794 5794 5795 5796 5797 5798 5800 5802 5802 5803 5804 5804 5805 5806 5807 5808 5809 5810 5811 5813 5814 5815 5815 5816 5817 5818 5819 5821 5822 5824 5824 5825 5826
5777 5776 5777 5779 5778 5777 5780 5783 5784 5785 5786 5786 5787 5788 5789 5789 5787 5786 5784 5783 5784 5784 5783 5782 5782 5782 5783 5782 5783 5784 5785 5786 5786 5785 5785 5785 5784 5784 5784 5785 5786 5786 5786 5787 5788 5788 5788 5788 5789 5790 5790 5791 5791 5792 5793 5794 5794 5796 5797 5799 5800 5801 5802 5802 5802 5803 5804 5805 5806 5807 5808 5810 5811 5812 5813 5813 5814 5816 5817 5818 5819 5821 5822 5823 5824
5776 5777 5775 5775 5776 5777 5780 5783 5784 5784 5785 5786 5786 5787 5787 5787 5786 5784 5782 5781 5781 5781 5780 5780 5780 5781 5782 5782 5781 5782 5784 5785 5785 5785 5784 5784 5784 5784 5784 5784 5785 5785 5785 5785 5785 5786 5786 5786 5787 5788 5788 5789 5790 5790 5791 5792 5792 5793 5795 5796 5797 5799 5800 5800 5800 5801 5801 5802 5803 5804 5805 5806 5808 5809 5810 5811 5812 5813 5814 5815 5816 5818 5819 5820 5822
5779 5780 5778 5773 5773 5777 5779 5782 5783 5783 5784 5784 5785 5786 5785 5785 5784 5783 5781 5780 5780 5779 5779 5778 5779 5780 5781 5781 5780 5781 5782 5782 5783 5783 5783 5783 5783 5783 5783 5784 5784 5784 5784 5784 5784 5784 5784 5785 5785 5785 5786 5787 5788 5788 5789 5790 5791 5792 5792 5793 5795 5796 5797 5798 5799 5799 5800 5800 5801 5801 5802 5803 5804 5805 5807 5808 5809 5810 5811 5812 5813 5814 5816 5817 5818
5779 5781 5781 5776 5772 5773 5776 5780 5782 5782 5782 5782 5782 5783 5782 5782 5781 5781 5780 5779 5779 5778 5778 5778 5778 5779 5780 5779 5779 5779 5780 5780 5780 5781 5781 5781 5782 5782 5783 5783 5783 5783 5783 5784 5784 5783 5783 5783 5783 5783 5784 5785 5785 5786 5787 5788 5789 5790 5790 5791 5792 5793 5795 5796 5797 5798 5798 5799 5799 5799 5799 5800 5801 5802 5803 5804 5806 5807 5808 5809 5810 5811 5813 5814 5815
5778 5780 5781 5780 5775 5770 5772 5777 5779 5780 5781 5781 5781 5781 5781 5780 5780 5779 5778 5778 5778 5778 5779 5779 5778 5778 5778 5778 5778 5778 5778 5778 5779 5779 5779 5779 5779 5780 5781 5781 5782 5782 5782 5782 5782 5782 5782 5782 5782 5782 5783 5783 5784 5784 5785 5786 5787 5788 5788 5789 5789 5790 5792 5793 5795 5796 5796 5797 5797 5796 5797 5798 5798 5799 5800 5801 5802 5803 5804 5806 5807 5808 5810 5811 5812
5777 5778 5779 5780 5776 5771 5772 5776 5778 5780 5781 5781 5781 5780 5780 5780 5779 5778 5777 5777 5777 5778 5778 5778 5777 5777 5776 5776 5776 5775 5776 5777 5777 5778 5778 5777 5777 5778 5778 5778 5779 5780 5780 5780 5780 5781 5781 5781 5781 5782 5782 5782 5782 5782 5782 5783 5784 5785 5785 5786 5787 5788 5789 5790 5792 5793 5794 5794 5794 5794 5794 5795 5796 5796 5797 5798 5799 5800 5801 5803 5804 5806 5807 5808 5809
5775 5776 5776 5776 5775 5773 5774 5777 5778 5779 5780 5780 5780 5779 5779 5778 5778 5777 5777 5776 5775 5776 5776 5776 5776 5775 5775 5775 5774 5774 5774 5775 5776 5776 5777 5776 5776 5776 5776 5775 5776 5777 5778 5778 5779 5779 5780 5781 5781 5780 5780 5780 5780 5781 5781 5781 5782 5783 5783 5784 5784 5785 5786 5787 5788 5789 5791 5791 5792 5792 5792 5793 5794 5794 5794 5795 5796 5797 5798 5800 5802 5803 5804 5805 5806
5773 5774 5774 5774 5773 5774 5776 5777 5778 5778 5778 5779 5779 5778 5777 5777 5777 5776 5776 5775 5774 5773 5773 5774 5774 5774 5774 5774 5773 5773 5773 5774 5775 5775 5775 5775 5774 5775 5775 5776 5775 5775 5776 5777 5777 5778 5779 5780 5780 5780 5779 5779 5779 5780 5779 5780 5780 5781 5781 5781 5782 5782 5783 5784 5785 5786 5787 5788 5789 5789 5790 5790 5791 5791 5792 5792 5793 5794 5795 5797 5799 5800 5801 5802 5803
5772 5773 5773 5773 5773 5774 5776 5777 5777 5777 5777 5777 5777 5776 5775 5775 5775 5775 5774 5774 5773 5772 5772 5772 5772 5773 5773 5773 5772 5772 5772 5773 5773 5774 5774 5773 5773 5773 5774 5775 5775 5774 5774 5775 5776 5777 5778 5779 5779 5779 5778 5778 5778 5778 5779 5779 5779 5779 5779 5779 5779 5779 5780 5781 5782 5783 5784 5784 5785 5786 5787 5788 5788 5789 5789 5790 5790 5791 5792 5793 5795 5797 5798 5799 5800
5771 5772 5772 5772 5773 5774 5775 5776 5776 5776 5776 5776 5775 5774 5774 5774 5774 5773 5773 5772 5772 5771 5770 5771 5771 5771 5771 5771 5771 5771 5771 5771 5772 5772 5772 5772 5771 5771 5772 5773 5773 5772 5773 5774 5775 5776 5777 5778 5778 5778 5777 5777 5776 5777 5777 5778 5778 5777 5777 5778 5778 5777 5777 5777 5779 5780 5780 5781 5782 5783 5784 5785 5785 5786 5786 5786 5787 5787 5788 5789 5791 5793 5794 5796 5798
5770 5770 5771 5772 5773 5773 5774 5775 5775 5775 5775 5774 5773 5772 5772 5773 5772 5771 5770 5769 5769 5769 5769 5769 5769 5769 5769 5769 5768 5768 5769 5769 5769 5770 5771 5771 5770 5770 5770 5770 5771 5771 5772 5773 5774 5775 5775 5776 5776 5776 5776 5775 5775 5775 5776 5776 5776 5776 5776 5776 5775 5774 5774 5775 5776 5777 5777 5778 5779 5780 5781 5782 5783 5783 5783 5783 5784 5784 5785 5786 5788 5790 5791 5793 5794
5769 5769 5769 5770 5772 5772 5772 5773 5773 5773 5773 5772 5771 5770 5770 5770 5769 5768 5767 5767 5766 5766 5766 5766 5766 5767 5766 5766 5766 5766 5766 5766 5767 5767 5768 5769 5769 5769 5769 5770 5770 5770 5771 5771 5772 5773 5773 5774 5774 5774 5774 5774 5774 5774 5775 5775 5775 5775 5775 5774 5773 5772 5773 5773 5774 5774 5775 5776 5777 5778 5779 5779 5780 5780 5780 5781 5781 5782 5782 5783 5785 5786 5788 5789 5790
5768 5768 5768 5768 5769 5769 5769 5769 5769 5770 5770 5770 5769 5768 5767 5767 5766 5765 5764 5764 5764 5764 5764 5764 5764 5764 5764 5764 5763 5764 5764 5764 5765 5765 5766 5767 5767 5768 5768 5768 5769 5769 5769 5770 5770 5771 5772 5772 5772 5772 5772 5773 5773 5773 5773 5774 5774 5774 5774 5773 5773 5772 5772 5772 5773 5773 5774 5774 5775 5776 5776 5777 5778 5778 5778 5778 5779 5780 5780 5780 5781 5782 5784 5786 5786
5766 5766 5766 5766 5766 5766 5766 5766 5767 5767 5767 5767 5767 5766 5765 5764 5764 5763 5763 5762 5762 5762 5762 5762 5762 5763 5763 5762 5762 5762 5762 5762 5762 5763 5763 5764 5764 5765 5766 5766 5767 5767 5768 5768 5769 5769 5769 5769 5770 5770 5770 5771 5771 5771 5772 5772 5772 5772 5772 5772 5771 5771 5771 5771 5772 5772 5773 5773 5773 5773 5774 5774 5775 5775 5775 5775 5776 5777 5777 5777 5779 5779 5780 5782 5782
5763 5763 5763 5764 5764 5764 5764 5764 5765 5765 5765 5765 5765 5764 5763 5763 5763 5762 5762 5762 5762 5761 5761 5761 5760 5761 5761 5761 5761 5760 5760 5760 5761 5761 5761 5762 5762 5763 5764 5764 5765 5766 5766 5766 5766 5766 5766 5767 5767 5767 5768 5768 5769 5769 5770 5770 5770 5770 5770 5770 5770 5770 5770 5770 5770 5770 5771 5771 5771 5771 5771 5772 5772 5773 5773 5773 5774 5775 5774 5774 5776 5776 5776 5777 5778
5761 5762 5762 5762 5762 5762 5763 5763 5764 5764 5764 5764 5764 5763 5762 5762 5762 5762 5762 5762 5762 5761 5760 5759 5759 5759 5759 5759 5760 5760 5759 5759 5760 5760 5760 5760 5761 5761 5762 5763 5764 5764 5764 5764 5764 5764 5764 5764 5764 5765 5765 5766 5766 5767 5768 5768 5768 5768 5769 5768 5767 5767 5768 5768 5767 5768 5768 5768 5768 5768 5769 5769 5769 5770 5770 5771 5771 5771 5771 5771 5772 5773 5773 5774 5775
5761 5761 5761 5761 5761 5761 5762 5762 5763 5763 5763 5763 5762 5762 5762 5761 5761 5761 5760 5761 5761 5760 5760 5759 5758 5757 5757 5757 5758 5758 5758 5759 5759 5760 5760 5760 5760 5761 5761 5761 5762 5762 5762 5763 5762 5762 5762 5762 5762 5762 5763 5763 5764 5764 5766 5766 5766 5767 5767 5764 5764 5765 5765 5765 5765 5765 5766 5766 5766 5766 5766 5766 5767 5767 5767 5768 5768 5768 5769 5769 5769 5770 5771 5772 5774
5760 5760 5760 5760 5760 5761 5761 5761 5762 5761 5761 5761 5761 5761 5761 5760 5760 5759 5759 5760 5759 5759 5759 5758 5758 5757 5756 5756 5755 5756 5756 5757 5757 5758 5759 5759 5760 5760 5760 5760 5760 5760 5761 5761 5761 5761 5760 5760 5760 5760 5761 5761 5761 5762 5762 5763 5764 5764 5763 5762 5762 5763 5763 5763 5763 5763 5763 5764 5764 5764 5763 5763 5764 5764 5764 5765 5765 5766 5767 5767 5768 5769 5769 5770 5772
5760 5760 5759 5759 5759 5760 5760 5760 5760 5760 5760 5760 5760 5759 5759 5759 5758 5758 5758 5758 5758 5757 5757 5757 5757 5756 5755 5754 5754 5754 5754 5755 5755 5755 5756 5757 5758 5758 5759 5759 5759 5758 5758 5759 5759 5759 5759 5759 5758 5758 5758 5759 5759 5759 5760 5760 5760 5761 5760 5760 5760 5760 5760 5760 5760 5760 5761 5761 5761 5761 5761 5761 5761 5761 5762 5762 5762 5763 5765 5766 5766 5766 5766 5766 5767
5759 5759 5758 5758 5758 5758 5758 5759 5759 5758 5758 5758 5758 5758 5758 5758 5757 5757 5756 5756 5756 5755 5755 5755 5756 5755 5754 5753 5752 5752 5752 5753 5753 5753 5754 5754 5755 5756 5756 5757 5757 5757 5757 5757 5757 5757 5757 5757 5756 5756 5756 5756 5757 5757 5757 5757 5757 5758 5758 5758 5757 5757 5758 5758 5757 5758 5758 5758 5758 5758 5758 5758 5758 5759 5759 5759 5760 5761 5762 5762 5762 5762 5762 5762 5763
5757 5757 5756 5756 5756 5756 5756 5756 5756 5756 5755 5754 5755 5755 5756 5756 5755 5755 5755 5754 5754 5753 5753 5753 5753 5753 5752 5752 5751 5751 5751 5751 5751 5752 5752 5752 5753 5753 5754 5755 5755 5755 5755 5755 5755 5755 5755 5754 5754 5754 5754 5754 5754 5755 5755 5755 5755 5755 5756 5756 5756 5755 5755 5755 5755 5755 5755 5755 5755 5755 5755 5755 5756 5756 5756 5757 5757 5758 5758 5758 5759 5759 5759 5759 5759
5755 5755 5754 5754 5754 5754 5753 5753 5753 5751 5750 5750 5750 5752 5753 5753 5753 5753 5753 5753 5752 5751 5751 5751 5751 5751 5750 5750 5749 5749 5749 5750 5750 5750 5751 5751 5751 5751 5752 5752 5753 5753 5753 5753 5753 5753 5753 5752 5752 5752 5752 5752 5752 5753 5753 5753 5753 5753 5753 5753 5753 5753 5753 5753 5753 5753 5753 5753 5753 5753 5753 5753 5754 5753 5753 5754 5755 5755 5755 5755 5755 5755 5755 5756 5757